Location: Borderline Observatory
(42.7345°N, 72.8696°W)
Time: 07:56:52
(UTC-04:00)

Daily predictions for brighter satellites

Satellite Brightness Start Highest point End
(mag) Time Altitude Azimuth Time Altitude Azimuth Time Altitude Azimuth
Lacrosse 5 4.5 20:50:21 10° NW 20:53:35 17° N 20:56:47 10° NNE
CZ-4 SHROUD 4.4 20:53:23 10° SE 20:56:06 27° ENE 20:58:52 10° N
Cosmos 2369 Rocket 2.6 20:51:16 10° NNW 20:56:48 51° ENE 21:02:15 10° SE
PSLV R/B 4.5 20:54:46 10° SE 20:57:24 26° ENE 21:00:05 10° NNE
USA 234 4.4 20:52:27 10° E 20:58:24 38° NNE 21:04:21 10° NW
Cosmos 1666 3.9 20:57:26 10° NNW 21:01:10 44° W 21:04:52 10° SSW
COSMOS 2455 2.9 20:56:39 10° SSW 21:02:39 88° ESE 21:08:43 10° NNE
ERS-1 Rocket 3.1 20:59:41 10° SSE 21:04:43 82° WSW 21:09:46 10° NNW
BREEZE-M DEB (TANK) 3.8 21:09:35 10° WNW 21:11:35 20° SW 21:13:18 10° S
YAOGAN 6 4.1 21:09:24 10° SE 21:12:27 24° ENE 21:15:32 10° NNE
GRACE-1 4.0 21:11:24 10° N 21:14:17 84° W 21:17:08 10° S
GRACE-2 4.0 21:11:51 10° N 21:14:43 84° W 21:17:34 10° S
Envisat 3.0 21:17:43 10° SSE 21:22:47 80° ENE 21:27:53 10° N
GEOS 3 Rocket 4.0 21:18:37 10° SSE 21:23:49 61° SW 21:29:00 10° NW
Cosmos 1758 Rocket 4.4 21:20:07 10° SSE 21:24:00 33° E 21:27:54 10° NNE
Cosmos 407 Rocket 3.7 21:20:38 10° S 21:25:42 50° ESE 21:30:45 10° NNE
Cosmos 2263 4.3 21:26:41 10° NNW 21:32:20 71° ENE 21:37:05 15° SSE
Cosmos 1515 3.9 21:30:29 10° SSW 21:34:19 73° W 21:38:11 10° N
CZ-2C R/B 3.4 21:33:26 10° SW 21:34:42 14° W 21:35:59 10° WNW
MetOp-A 4.2 21:31:35 12° SSE 21:36:35 72° ENE 21:41:57 10° N
SL-27 R/B 3.7 21:36:56 19° SE 21:38:01 22° E 21:40:40 10° NE
UNK 4.3 21:32:50 10° NNE 21:38:19 66° ESE 21:44:06 10° S
Cosmos 1825 Rocket 3.5 21:35:01 10° S 21:39:27 85° E 21:43:54 10° N
Cosmos 1066 Rocket 4.3 21:36:42 10° S 21:42:25 83° E 21:48:18 10° NNE
COSMOS 2406 4.1 21:39:25 14° SSE 21:43:11 28° ESE 21:47:59 10° NE
Cosmos 1943 Rocket 2.6 21:40:59 10° NNW 21:46:24 51° ENE 21:50:21 18° SE
Cosmos 1954 Rocket 4.3 21:42:08 10° S 21:47:10 45° ESE 21:52:13 10° NNE
Lacrosse 4 Rocket 1.5 21:44:44 10° SW 21:48:46 73° WNW 21:52:53 10° NNE
Cosmos 2084 3.8 21:50:19 10° NNW 21:54:23 55° NE 21:56:59 22° ESE
Atlas Centaur 2 3.7 21:49:48 10° WSW 21:55:54 30° S 22:00:12 19° SE
SeaSat 1 2.4 21:52:49 19° SSE 21:56:26 88° WSW 22:01:24 10° NNW
Meteor 1-22 Rocket 4.3 21:51:38 10° N 21:57:19 86° W 22:02:15 15° S
H-2A R/B 4.0 21:55:17 10° SSW 21:58:50 25° W 22:02:30 10° NW
Cosmos 1943 3.9 21:53:20 10° SW 21:58:55 58° WNW 22:04:33 10° NNE
ISS -0.8 21:56:51 10° WNW 21:59:36 24° NNW 22:02:21 10° NE
CZ-4C R/B 3.9 22:00:19 24° SE 22:02:24 45° ENE 22:06:11 10° N
Landsat 7 4.3 22:02:45 23° SE 22:05:21 45° ENE 22:09:53 10° N
SL-23 DEB 4.2 22:01:26 10° SW 22:07:59 78° SE 22:11:51 10° ENE
CZ-4B R/B 3.7 22:08:01 10° N 22:13:09 76° WNW 22:18:22 10° SSW
CZ-4 R/B 3.9 22:09:05 10° NNE 22:14:07 79° ESE 22:18:13 16° S
Cosmos 1953 2.6 22:11:46 10° N 22:15:40 52° E 22:17:07 33° SE
Nadezhda 4 Rocket 4.4 22:13:52 23° SSE 22:17:26 46° E 22:23:26 10° NNE
PSLV R/B 3.6 22:17:11 10° W 22:20:37 50° SSW 22:21:15 43° SSE
Terra 2.3 22:19:03 27° SE 22:21:10 45° ENE 22:25:43 10° N
ARGOS 3.2 22:18:01 22° S 22:21:34 80° WSW 22:27:02 10° NNW
ATLAS 3B R/B 3.5 22:16:24 10° SW 22:24:00 61° NW 22:31:25 10° NNE
Cosmos 1346 Rocket 4.2 22:20:41 10° SW 22:24:18 36° WNW 22:27:58 10° N
SPOT 5 4.4 22:21:13 10° SSW 22:24:53 26° W 22:28:33 10° NW
USA 245 4.5 22:21:18 18° S 22:25:26 58° WSW 22:30:09 10° NNW
Cosmos-2242 3.0 22:21:36 10° N 22:26:03 86° E 22:28:01 33° S
Cosmos 1850 Rocket 4.2 22:24:44 27° SSE 22:27:19 52° ESE 22:32:23 10° NNE
Cosmos 1842 3.3 22:25:37 26° SSW 22:27:46 80° W 22:31:42 10° N
Cosmos 1140 Rocket 3.4 22:26:31 20° S 22:30:08 72° ESE 22:35:23 10° NNE
Cosmos 1570 Rocket 4.0 22:26:27 10° NNW 22:31:50 75° ENE 22:34:19 33° SSE
H-2A R/B 2.0 22:33:42 33° SSE 22:35:54 70° ENE 22:41:01 10° N
NOSS 3-2 (A) 4.1 22:35:29 30° SE 22:37:04 34° ESE 22:42:51 10° NE
Lacrosse 5 4.2 22:34:33 10° NNW 22:38:15 20° NNE 22:41:57 10° ENE
SL-8 R/B 3.7 22:34:03 10° WNW 22:38:55 86° NNE 22:41:05 33° ESE
Cosmos 1607 3.9 22:33:02 10° SSW 22:39:15 68° ESE 22:45:25 10° NE
Cosmos 2369 Rocket 4.0 22:36:03 10° NW 22:40:26 23° WSW 22:44:34 11° SSW
USA 234 3.2 22:37:08 27° SE 22:41:00 86° SW 22:47:37 10° NW
Cosmos 614 Rocket 3.9 22:48:02 35° S 22:50:12 68° ESE 22:55:25 10° NNE
Spot 2 4.3 22:53:35 10° NNE 22:58:30 85° ESE 23:00:35 37° S
SAR-Lupe-2 3.8 22:58:16 52° SW 22:58:45 59° WSW 23:02:19 10° NNW
Cosmos 1340 2.8 23:00:50 54° E 23:00:50 54° E 23:04:29 10° NNE
Cosmos 1544 2.9 22:57:51 10° N 23:01:39 82° E 23:01:55 74° SE
Meteor 2-5 Rocket 3.9 23:00:28 39° SSE 23:02:22 57° E 23:08:00 10° NNE
CARTOSAT-1 3.8 23:02:00 44° SSW 23:03:10 62° WSW 23:07:28 10° NNW
Cosmos 1758 4.3 23:00:26 10° NNW 23:04:20 41° W 23:05:36 32° SW
CZ-4C R/B 2.4 23:03:35 43° SSE 23:04:31 47° ESE 23:10:08 10° NE
Okean 3 Rocket 3.5 23:08:05 57° SE 23:08:37 63° E 23:13:01 10° NNE
USA 238 DEB 4.1 23:04:28 10° SW 23:11:30 65° NW 23:18:33 10° NNE
USA 238 4.1 23:04:34 10° SW 23:11:36 65° NW 23:18:39 10° NNE
DMSP B5D2-2 4.2 23:10:23 10° N 23:15:40 71° WNW 23:18:08 32° SSW
Cosmos 2278 4.4 23:12:04 10° NNW 23:17:28 44° ENE 23:19:32 32° ESE
Cosmos 1470 2.6 23:15:17 10° N 23:19:11 81° W 23:19:20 79° SW
IGS 5A 4.1 23:19:53 40° SW 23:20:37 45° W 23:24:38 10° NNW
Cosmos 1408 Rocket 4.3 23:21:14 38° E 23:21:14 38° E 23:25:21 10° NNE
COSMOS 2487 3.1 23:24:51 49° W 23:25:12 52° WNW 23:28:45 10° N
Cosmos 405 Rocket 4.3 23:27:35 24° ENE 23:27:35 24° ENE 23:29:52 10° NE
COSMOS 2406 4.2 23:21:49 10° SW 23:27:15 44° WNW 23:32:46 10° NNE
CENTAUR R/B 4.3 23:29:35 15° E 23:29:35 15° E 23:32:20 10° ENE
Cosmos 1943 Rocket 3.8 23:25:29 10° NW 23:29:46 23° WSW 23:31:53 19° SW
ALOS 2 3.9 23:32:11 27° E 23:32:46 28° ENE 23:36:29 10° N
Cosmos 1818 3.7 23:27:31 10° NNW 23:33:00 68° NE 23:34:29 47° ESE
Cosmos 2082 Rocket 3.4 23:34:49 26° E 23:34:49 26° E 23:39:16 10° NE
Cosmos 1833 Rocket 4.2 23:35:46 20° E 23:35:46 20° E 23:39:25 10° NE
Cosmos 1656 Rocket 4.4 23:31:29 10° NW 23:36:49 43° WSW 23:38:15 36° SW
ISS -0.3 23:34:36 10° NW 23:36:51 17° N 23:39:06 10° NE
NOSS 3-3 (A) 4.4 23:29:38 10° NW 23:37:07 88° NE 23:40:26 39° SE
NOSS 3-3 (C) 4.4 23:29:45 10° NW 23:37:13 87° NE 23:40:33 39° SE
CZ-4B R/B 3.4 23:37:33 23° ENE 23:37:33 23° ENE 23:40:23 10° NNE
Cosmos 1417 Rocket 4.4 23:35:20 10° N 23:41:29 76° E 23:43:09 50° SSE
H-2A R/B 3.8 23:39:13 10° NE 23:41:37 26° ENE 23:41:37 26° ENE
Atlas Centaur 2 4.4 23:39:13 10° WSW 23:42:50 19° SW 23:42:50 19° SW
NOSS 3-2 (C) 3.4 23:43:08 40° SSW 23:45:36 82° ESE 23:52:18 10° NE
Cosmos 1553 Rocket 4.2 23:39:46 10° N 23:46:06 63° E 23:47:54 45° SE
Cosmos 1707 3.4 23:50:19 48° W 23:50:27 48° WNW 23:54:16 10° N
Cosmos 1743 Rocket 4.5 23:51:30 37° E 23:51:30 37° E 23:55:18 10° NNE
Cosmos 1378 3.8 23:56:29 49° NE 23:56:29 49° NE 23:59:28 10° NNE
